Wind_Speed
22 24 25 25 25 25 24 24 24 25 26 27 29 32 33 35 35 35 35 35 35 35 36 37 39 41 42 44 46 49 50 52 55 57 57 57 57 58 58 60 61 62 62
23 24 24 24 23 23 23 24 26 28 29 31 33 34 34 35 35 35 36 36 37 38 40 41 43 45 47 49 51 54 56 57 59 61 63 63 61 59 60 61 62 62 63
22 23 23 23 22 22 23 26 28 31 33 34 34 34 34 35 35 36 37 38 40 42 44 46 48 50 52 54 55 57 59 60 60 62 65 67 67 66 63 63 63 64 65
21 22 23 23 24 24 26 29 31 33 33 34 33 33 34 36 37 38 40 42 44 46 48 50 52 53 55 56 57 59 61 62 63 65 67 69 72 73 73 71 71 70 70
23 24 25 26 27 29 30 31 32 32 32 32 33 35 36 38 40 42 44 45 47 49 51 52 54 56 58 59 61 63 65 67 69 71 73 75 77 80 83 82 81 81 80
26 27 28 29 31 32 32 32 31 31 32 34 36 37 39 41 43 44 46 48 49 51 53 56 59 61 63 66 68 70 73 75 77 79 81 84 86 87 90 91 90 90 88
28 29 30 32 33 34 33 32 33 34 35 37 39 40 41 43 44 46 47 49 52 55 58 61 64 67 70 72 75 77 79 81 83 85 88 90 93 95 96 98 99 98 95
30 31 32 33 34 34 34 34 35 37 38 39 40 41 43 44 46 48 51 54 57 61 64 67 70 73 75 78 80 82 84 86 89 91 94 96 98 99 99 99 101 102 100
31 31 32 32 33 34 35 36 38 39 40 41 41 43 44 47 50 53 57 61 65 68 71 74 76 78 80 82 84 87 89 92 95 97 99 100 101 100 98 96 93 93 96
29 29 30 32 34 35 36 38 39 40 41 42 43 46 48 52 55 59 63 66 70 73 76 78 81 83 85 87 90 92 95 97 99 101 102 101 99 96 91 86 82 80 81
27 29 31 34 35 36 37 38 39 40 42 44 46 49 53 57 61 65 68 72 75 78 80 82 84 86 89 92 94 97 99 100 101 101 99 96 92 86 81 76 72 71 73
28 31 33 35 36 37 37 38 39 41 43 46 50 54 58 62 66 70 73 76 79 81 83 85 87 90 92 95 97 99 100 100 99 96 92 87 82 77 73 71 70 70 72
30 32 34 35 37 37 38 39 41 44 48 52 56 60 64 68 71 74 76 78 80 82 85 88 90 93 95 98 99 99 98 96 92 89 84 81 78 76 74 74 74 75 75
32 34 35 36 37 38 39 42 46 50 54 58 61 65 68 71 74 76 78 80 82 85 88 91 94 96 97 98 97 95 92 88 85 83 81 81 81 81 82 81 82 83 83
33 35 36 37 38 40 43 47 52 56 59 62 65 69 71 74 76 78 80 83 86 89 92 94 96 96 95 93 91 89 86 85 84 83 84 86 87 88 90 90 90 90 91
34 35 36 38 41 45 49 53 56 59 62 65 68 71 73 75 78 81 83 86 89 91 93 94 94 92 90 88 87 88 88 88 89 89 89 90 91 92 93 94 94 94 94
34 36 38 42 46 49 53 56 59 62 64 67 70 73 75 78 81 83 86 88 91 92 92 91 89 87 86 86 88 90 92 92 91 90 89 87 86 87 88 87 87 86 84
36 39 43 46 50 53 56 59 61 64 67 70 72 75 78 80 83 86 88 90 91 90 89 87 85 84 85 88 91 92 90 87 83 80 78 76 74 73 74 73 71 69 65
40 43 47 50 54 56 59 61 64 66 69 72 75 77 80 82 85 87 88 89 88 85 83 82 83 84 87 90 90 88 83 78 73 70 69 68 65 63 62 61 58 53 49
44 48 51 54 56 59 61 64 66 69 71 74 77 79 81 84 86 87 87 86 84 82 80 80 84 88 90 88 85 81 77 73 69 65 62 60 58 55 53 51 48 43 38
49 52 55 57 60 62 64 66 68 71 73 75 78 80 83 85 85 85 84 82 80 79 80 82 85 88 88 84 78 74 71 68 64 61 57 54 51 48 46 44 42 38 32
53 56 58 61 63 64 66 68 70 71 74 76 79 81 83 84 83 82 80 78 78 79 81 83 85 85 82 77 71 67 64 62 60 57 53 50 48 45 42 40 36 32 26
57 60 62 63 64 65 66 68 70 72 75 77 80 82 82 81 80 78 77 77 78 80 83 86 86 82 75 70 66 62 59 56 53 50 47 46 45 42 39 36 32 26 19
60 61 62 63 64 65 66 68 71 73 76 79 81 81 80 78 76 75 75 76 78 81 84 86 84 78 71 66 62 58 55 51 48 45 42 41 40 38 36 31 25 18 13
61 60 61 62 63 65 67 70 73 76 79 80 81 79 77 75 73 72 73 76 78 82 86 86 82 75 69 64 60 57 53 50 46 43 40 38 35 33 30 25 18 13 11
59 59 60 61 63 66 69 72 76 78 80 80 78 76 74 73 72 71 71 74 78 81 85 82 77 71 66 63 58 54 51 47 43 40 38 35 31 28 22 14 10 10 13
Wind_Direction
269 272 273 273 273 271 271 271 274 278 281 285 288 291 292 293 293 292 293 293 293 293 293 293 293 293 293 293 293 293 294 294 294 294 293 293 293 293 292 291 291 290 290
270 270 271 270 268 266 267 271 275 279 282 285 288 289 289 289 290 290 291 291 291 292 292 293 293 294 295 295 296 296 296 297 297 296 295 294 293 293 293 292 292 291 290
269 269 269 268 266 267 271 275 278 281 283 285 286 287 287 287 288 289 290 291 292 293 294 295 296 297 297 298 298 298 298 298 297 297 297 297 296 294 293 292 291 290 289
268 268 268 268 269 272 276 279 282 283 284 284 284 285 286 287 289 290 291 293 294 295 296 297 298 298 298 298 298 298 298 297 297 296 296 296 296 296 294 293 292 290 289
265 266 267 269 273 277 281 284 285 285 284 283 284 285 287 289 290 292 294 295 296 297 298 299 298 298 298 298 298 298 298 298 297 297 296 296 296 295 294 293 292 291 291
264 266 269 273 276 280 284 286 286 285 284 284 285 287 290 292 294 295 297 299 300 301 301 301 301 301 300 300 300 299 299 299 298 298 297 297 296 295 294 293 292 291 290
266 269 272 275 278 282 284 285 284 284 284 286 288 290 292 295 297 299 300 301 302 303 303 303 303 302 301 300 300 299 299 299 299 299 298 298 297 296 296 295 293 292 290
268 271 274 276 279 281 282 282 283 284 285 287 290 293 296 299 300 301 302 303 304 305 304 304 303 302 301 301 300 300 299 299 299 299 299 299 298 298 297 296 295 293 291
268 272 275 277 277 278 280 281 283 285 288 292 295 298 301 302 303 304 305 306 306 306 306 305 304 303 303 302 301 301 301 301 301 300 300 299 299 298 297 296 294 293 291
269 273 274 275 276 278 280 283 286 290 294 297 299 301 303 304 306 306 307 307 307 307 307 306 305 304 303 303 302 302 302 301 301 300 300 299 298 297 296 295 293 291 290
268 270 273 276 278 280 283 287 290 293 296 298 300 302 304 306 307 308 308 308 308 307 306 306 305 304 303 303 303 302 302 301 301 301 300 299 298 296 294 293 291 290 289
270 273 276 278 280 283 287 290 293 295 298 300 303 305 306 308 309 309 309 309 308 307 306 306 305 304 304 304 303 303 303 302 302 301 299 298 296 294 293 291 290 289 288
275 277 279 281 284 287 290 293 296 299 301 303 305 307 308 309 310 310 309 309 308 307 306 306 306 306 305 305 305 304 304 303 302 300 298 296 294 293 291 290 289 288 287
278 280 282 285 288 291 295 298 301 303 305 307 308 309 310 310 310 310 309 309 308 308 307 307 308 308 307 307 306 306 304 303 301 299 297 295 293 291 290 288 287 286 286
281 283 285 289 294 298 301 303 304 306 307 308 309 310 310 311 310 310 310 309 309 309 309 309 310 310 309 308 307 306 304 303 301 298 296 294 292 290 289 287 286 285 285
283 286 291 296 300 302 303 305 306 307 308 309 310 310 310 311 311 310 310 310 310 311 311 311 312 311 310 309 308 307 305 304 302 300 297 294 292 290 288 287 286 285 285
286 291 296 299 301 302 303 305 306 308 309 309 310 310 311 311 311 311 311 311 312 313 313 313 313 312 311 310 309 308 307 306 305 303 301 298 296 293 290 288 286 285 285
290 295 298 300 301 303 304 306 307 308 309 310 310 311 311 311 311 312 312 313 314 314 314 314 313 313 313 312 311 311 310 310 309 308 307 306 303 300 297 293 290 288 286
293 296 298 300 302 304 306 307 308 308 309 310 310 311 311 312 312 313 314 315 315 315 314 314 314 315 315 315 315 314 314 313 314 314 313 311 308 305 302 299 297 294 291
295 298 300 302 304 305 306 306 307 308 309 310 310 311 312 313 314 315 316 316 316 315 315 315 317 318 318 318 317 316 316 316 316 317 316 314 312 310 308 306 305 302 299
297 300 302 303 303 304 305 305 306 308 309 310 311 313 314 315 316 317 316 316 315 315 316 318 319 320 320 319 318 317 317 317 319 319 318 317 315 315 313 312 311 310 308
299 301 302 302 303 304 305 306 307 309 310 312 314 315 316 317 317 317 316 316 316 317 318 320 321 321 321 319 319 318 318 318 320 321 320 319 318 318 317 315 314 313 312
300 301 302 302 303 304 306 307 309 311 313 314 316 317 317 317 317 317 316 316 317 318 320 321 322 322 321 320 319 319 318 318 319 321 320 319 318 318 317 315 314 314 316
300 301 302 303 304 306 307 309 311 313 314 316 317 317 317 317 317 316 316 317 319 320 322 323 324 323 322 320 320 319 318 318 319 320 320 319 319 318 318 317 316 318 325
301 302 303 304 306 308 309 311 313 314 316 317 317 317 317 316 316 316 317 318 320 322 324 325 324 323 322 322 321 321 320 320 321 322 322 321 319 318 316 316 317 324 334
302 303 304 306 308 309 311 313 314 316 317 318 317 317 316 316 316 316 317 319 321 323 325 325 324 322 322 323 322 321 321 320 320 321 322 322 321 320 319 318 325 336 338
Height
5802 5802 5802 5801 5801 5800 5799 5799 5799 5798 5797 5796 5794 5792 5790 5788 5785 5782 5779 5777 5774 5771 5768 5765 5761 5757 5753 5749 5745 5740 5736 5732 5726 5721 5718 5717 5713 5709 5705 5700 5695 5691 5687
5796 5796 5796 5796 5795 5795 5794 5794 5794 5793 5792 5790 5788 5786 5783 5781 5778 5775 5772 5769 5766 5763 5759 5755 5752 5747 5743 5738 5733 5728 5723 5719 5713 5706 5701 5700 5701 5697 5691 5685 5680 5676 5671
5791 5791 5791 5791 5790 5790 5790 5790 5789 5788 5786 5784 5781 5779 5776 5773 5770 5767 5764 5761 5757 5753 5750 5746 5741 5737 5732 5727 5722 5716 5711 5706 5701 5693 5686 5680 5678 5677 5677 5672 5667 5661 5656
5786 5786 5786 5786 5786 5786 5785 5784 5783 5782 5780 5777 5774 5771 5768 5765 5762 5759 5756 5752 5748 5744 5740 5736 5731 5726 5721 5715 5710 5704 5698 5692 5687 5681 5673 5665 5658 5653 5652 5653 5649 5645 5640
5780 5781 5781 5781 5781 5780 5779 5778 5776 5774 5772 5770 5767 5764 5761 5758 5755 5751 5748 5744 5740 5735 5731 5726 5720 5715 5709 5703 5697 5690 5684 5677 5670 5664 5657 5650 5642 5633 5626 5627 5627 5622 5619
5775 5775 5776 5776 5775 5774 5772 5770 5768 5766 5764 5762 5759 5756 5753 5750 5747 5743 5739 5735 5730 5725 5719 5714 5708 5701 5695 5688 5681 5674 5667 5659 5652 5644 5636 5628 5621 5613 5602 5597 5598 5597 5597
5769 5769 5770 5770 5768 5767 5765 5763 5761 5759 5757 5754 5752 5749 5745 5742 5738 5734 5730 5725 5720 5714 5708 5701 5694 5687 5680 5673 5665 5657 5649 5641 5632 5624 5615 5605 5595 5586 5576 5567 5563 5563 5567
5762 5763 5763 5763 5762 5760 5758 5756 5754 5752 5749 5747 5744 5740 5737 5733 5728 5724 5719 5714 5708 5702 5695 5688 5680 5672 5664 5656 5647 5638 5629 5620 5611 5601 5591 5581 5571 5559 5548 5537 5528 5525 5529
5756 5757 5757 5757 5755 5753 5751 5749 5747 5744 5742 5739 5735 5731 5727 5722 5717 5712 5706 5700 5694 5687 5679 5671 5663 5654 5645 5636 5626 5617 5607 5597 5587 5576 5565 5554 5544 5533 5522 5510 5499 5489 5485
5751 5752 5751 5750 5748 5746 5744 5742 5739 5737 5733 5730 5726 5721 5716 5711 5706 5700 5693 5686 5678 5671 5662 5654 5644 5635 5625 5615 5605 5595 5585 5574 5563 5551 5540 5529 5518 5508 5498 5488 5478 5467 5455
5746 5746 5745 5743 5741 5739 5737 5735 5732 5728 5724 5720 5716 5711 5705 5699 5693 5686 5679 5671 5662 5654 5645 5635 5625 5615 5605 5594 5583 5572 5561 5550 5538 5526 5515 5504 5493 5484 5475 5467 5459 5450 5439
5741 5740 5738 5736 5734 5732 5729 5727 5723 5719 5715 5710 5705 5699 5693 5687 5680 5672 5663 5654 5645 5636 5626 5616 5605 5594 5583 5571 5559 5548 5536 5524 5512 5501 5490 5479 5469 5461 5453 5446 5439 5431 5423
5734 5733 5731 5729 5726 5724 5721 5717 5714 5709 5704 5699 5693 5687 5680 5672 5664 5656 5647 5638 5628 5618 5607 5596 5584 5573 5560 5547 5534 5522 5510 5498 5486 5475 5465 5455 5446 5439 5432 5424 5417 5410 5403
5727 5725 5723 5721 5718 5715 5712 5708 5703 5698 5693 5686 5680 5673 5665 5657 5648 5639 5630 5620 5610 5599 5587 5575 5562 5548 5535 5521 5508 5496 5485 5474 5463 5453 5442 5432 5423 5414 5407 5400 5393 5385 5379
5720 5718 5715 5712 5709 5706 5702 5697 5692 5686 5679 5673 5665 5657 5649 5640 5631 5621 5611 5601 5590 5578 5565 5553 5539 5524 5509 5496 5482 5471 5461 5451 5441 5431 5420 5409 5398 5387 5378 5370 5365 5357 5351
5712 5710 5707 5704 5700 5696 5691 5685 5679 5673 5666 5658 5650 5642 5633 5623 5614 5604 5593 5582 5570 5557 5543 5529 5515 5501 5485 5472 5459 5445 5436 5426 5414 5404 5394 5382 5370 5358 5349 5340 5332 5326 5320
5704 5702 5698 5695 5690 5685 5679 5673 5666 5659 5651 5643 5635 5626 5616 5606 5596 5585 5574 5562 5549 5535 5521 5506 5492 5479 5465 5451 5438 5424 5411 5399 5386 5373 5361 5350 5339 5326 5315 5309 5303 5299 5292
5696 5692 5688 5684 5678 5672 5666 5659 5652 5644 5636 5627 5618 5609 5600 5589 5577 5565 5553 5540 5527 5514 5500 5486 5472 5460 5447 5431 5416 5401 5388 5374 5361 5347 5333 5321 5311 5299 5286 5279 5276 5273 5270
5686 5682 5677 5672 5666 5659 5652 5645 5638 5629 5621 5612 5602 5592 5582 5571 5558 5546 5532 5519 5507 5494 5481 5468 5453 5440 5427 5410 5393 5376 5364 5353 5342 5330 5316 5301 5290 5280 5268 5259 5255 5253 5251
5675 5670 5665 5659 5653 5646 5639 5632 5624 5615 5606 5596 5586 5575 5564 5551 5538 5525 5512 5499 5487 5475 5463 5451 5435 5419 5404 5389 5372 5356 5344 5334 5325 5315 5303 5289 5276 5265 5255 5246 5240 5237 5235
5664 5658 5653 5646 5640 5633 5626 5618 5609 5600 5589 5579 5568 5556 5544 5531 5518 5505 5492 5480 5469 5458 5447 5435 5421 5403 5385 5370 5356 5342 5328 5317 5309 5299 5289 5278 5267 5257 5247 5239 5232 5227 5224
5651 5646 5640 5633 5627 5619 5611 5603 5594 5584 5573 5562 5550 5538 5525 5512 5499 5487 5475 5462 5450 5439 5428 5416 5404 5388 5370 5355 5342 5330 5317 5304 5295 5286 5276 5266 5257 5248 5240 5232 5226 5221 5217
5638 5632 5626 5619 5611 5603 5595 5586 5577 5566 5556 5544 5532 5520 5507 5494 5481 5469 5458 5447 5434 5422 5410 5397 5385 5372 5357 5343 5330 5319 5307 5296 5286 5277 5267 5257 5248 5241 5234 5227 5221 5217 5214
5625 5618 5611 5603 5595 5586 5578 5570 5561 5550 5539 5528 5515 5503 5491 5479 5467 5454 5442 5430 5418 5406 5393 5379 5366 5354 5342 5329 5318 5308 5298 5288 5279 5270 5261 5251 5242 5234 5228 5222 5218 5214 5211
5609 5602 5594 5587 5579 5570 5562 5554 5544 5534 5523 5511 5498 5486 5474 5463 5453 5442 5429 5416 5405 5389 5375 5361 5347 5335 5326 5316 5304 5293 5285 5276 5268 5260 5253 5245 5238 5231 5225 5220 5216 5213 5212
5594 5586 5579 5572 5564 5555 5546 5537 5527 5517 5505 5494 5482 5470 5459 5448 5438 5428 5420 5407 5392 5379 5362 5346 5333 5322 5312 5302 5292 5283 5274 5266 5259 5252 5246 5239 5232 5226 5222 5218 5216 5214 5212